CKS379 KIND-KATL

Flight info

Callsign CKS379
Flight time 1h 10m
Altitude 38000
Route DAWNN1 MYS HITMN/N0478F370 NEWBB IHAVE MTHEW CHPPR1
Aircraft B77L/H-SDE1E2E3FGHIJ2J3J4J5M1RWXY/LB1D1

Departure

Time 2026-05-07 02:45
Airport Indianapolis International Airport (KIND)

Arrival

Time 2026-05-07 03:55
Airport Hartsfield Jackson Atlanta International Airport (KATL)
Time Latitude Longitude Altitude Speed Heading
2026-05-07 02:27 39.71381 -86.28353 796 ft 0 kts 315°
2026-05-07 02:37 39.71380 -86.28352 796 ft 1 kts 315°
2026-05-07 02:37 39.71373 -86.28343 793 ft 2 kts 323°
2026-05-07 02:37 39.71352 -86.28322 793 ft 4 kts 320°
2026-05-07 02:38 39.71329 -86.28305 793 ft 4 kts
2026-05-07 02:38 39.71322 -86.28306 793 ft 0 kts 13°
2026-05-07 02:41 39.71341 -86.28300 793 ft 8 kts 11°
2026-05-07 02:41 39.71401 -86.28297 792 ft 9 kts 353°
2026-05-07 02:42 39.71452 -86.28331 793 ft 6 kts 323°
2026-05-07 02:42 39.71541 -86.28313 791 ft 29 kts 40°
2026-05-07 02:42 39.71656 -86.28073 793 ft 31 kts 51°
2026-05-07 02:42 39.71802 -86.27878 797 ft 30 kts 44°
2026-05-07 02:43 39.71857 -86.27810 795 ft 0 kts 44°
2026-05-07 02:43 39.71876 -86.27821 796 ft 9 kts 313°
2026-05-07 02:43 39.71902 -86.27868 796 ft 11 kts 310°
2026-05-07 02:43 39.71942 -86.27985 794 ft 15 kts 248°
2026-05-07 02:44 39.71907 -86.28038 793 ft 5 kts 218°
2026-05-07 02:44 39.71680 -86.28324 791 ft 94 kts 225°
2026-05-07 02:44 39.71000 -86.29200 794 ft 177 kts 228°
2026-05-07 02:44 39.70065 -86.30435 1286 ft 202 kts 226°
2026-05-07 02:45 39.69069 -86.31723 2355 ft 202 kts 227°
2026-05-07 02:45 39.68075 -86.33010 3380 ft 201 kts 227°
2026-05-07 02:45 39.67067 -86.34237 4396 ft 198 kts 221°
2026-05-07 02:45 39.65910 -86.35298 5070 ft 215 kts 216°
2026-05-07 02:46 39.64404 -86.35964 5024 ft 236 kts 183°
2026-05-07 02:46 39.62742 -86.35749 5412 ft 245 kts 172°
2026-05-07 02:46 39.61053 -86.35363 6432 ft 247 kts 172°
2026-05-07 02:46 39.59349 -86.34990 7431 ft 249 kts 175°
2026-05-07 02:47 39.57619 -86.34648 8385 ft 254 kts 177°
2026-05-07 02:47 39.55859 -86.34335 9367 ft 257 kts 179°
2026-05-07 02:47 39.54072 -86.34046 10305 ft 261 kts 181°
2026-05-07 02:47 39.52262 -86.33777 11226 ft 262 kts 182°
2026-05-07 02:48 39.50450 -86.33524 12168 ft 262 kts 185°
2026-05-07 02:48 39.48637 -86.33283 13135 ft 263 kts 187°
2026-05-07 02:48 39.46812 -86.33052 14032 ft 265 kts 189°
2026-05-07 02:48 39.44972 -86.32822 14880 ft 266 kts 189°
2026-05-07 02:49 39.43123 -86.32593 15709 ft 268 kts 190°
2026-05-07 02:49 39.41260 -86.32367 16553 ft 270 kts 190°
2026-05-07 02:49 39.39386 -86.32143 17409 ft 272 kts 191°
2026-05-07 02:49 39.37495 -86.31921 18250 ft 274 kts 191°
2026-05-07 02:50 39.35617 -86.31703 18999 ft 275 kts 192°
2026-05-07 02:50 39.33684 -86.31480 19787 ft 275 kts 193°
2026-05-07 02:50 39.31802 -86.31263 20551 ft 275 kts 193°
2026-05-07 02:50 39.29890 -86.31045 21310 ft 277 kts 194°
2026-05-07 02:51 39.27966 -86.30825 22027 ft 278 kts 194°
2026-05-07 02:51 39.26038 -86.30606 22817 ft 279 kts 195°
2026-05-07 02:51 39.24091 -86.30393 23513 ft 283 kts 195°
2026-05-07 02:51 39.22110 -86.30178 24086 ft 289 kts 195°
2026-05-07 02:52 39.20096 -86.29953 24684 ft 292 kts 195°
2026-05-07 02:52 39.18063 -86.29725 25306 ft 294 kts 195°
2026-05-07 02:52 39.16008 -86.29493 25904 ft 299 kts 196°
2026-05-07 02:52 39.13924 -86.29259 26488 ft 303 kts 196°
2026-05-07 02:53 39.11806 -86.29025 27098 ft 307 kts 196°
2026-05-07 02:53 39.09663 -86.28785 27721 ft 311 kts 196°
2026-05-07 02:53 39.07489 -86.28542 28306 ft 316 kts 196°
2026-05-07 02:53 39.05277 -86.28294 28798 ft 322 kts 196°
2026-05-07 02:54 39.03021 -86.28045 29340 ft 327 kts 196°
2026-05-07 02:54 39.00741 -86.27787 30011 ft 330 kts 196°
2026-05-07 02:54 38.98438 -86.27528 30506 ft 335 kts 196°
2026-05-07 02:54 38.96106 -86.27265 31026 ft 337 kts 196°
2026-05-07 02:55 38.93767 -86.26999 31576 ft 339 kts 196°
2026-05-07 02:55 38.91408 -86.26731 32089 ft 342 kts 196°
2026-05-07 02:55 38.89030 -86.26465 32556 ft 345 kts 197°
2026-05-07 02:55 38.86625 -86.26197 33022 ft 348 kts 197°
2026-05-07 02:56 38.84202 -86.25926 33499 ft 351 kts 197°
2026-05-07 02:56 38.81756 -86.25653 33907 ft 353 kts 197°
2026-05-07 02:56 38.79299 -86.25377 34326 ft 355 kts 197°
2026-05-07 02:56 38.76818 -86.25101 34649 ft 360 kts 197°
2026-05-07 02:57 38.74307 -86.24825 34952 ft 364 kts 196°
2026-05-07 02:57 38.71769 -86.24542 35294 ft 367 kts 196°
2026-05-07 02:57 38.69211 -86.24256 35627 ft 371 kts 196°
2026-05-07 02:57 38.66661 -86.23971 35945 ft 374 kts 196°
2026-05-07 02:58 38.64023 -86.23676 36251 ft 378 kts 196°
2026-05-07 02:58 38.61383 -86.23383 36512 ft 383 kts 196°
2026-05-07 02:58 38.58712 -86.23091 36645 ft 388 kts 195°
2026-05-07 02:58 38.56056 -86.22873 36867 ft 384 kts 199°
2026-05-07 02:59 38.53398 -86.22910 37069 ft 383 kts 201°
2026-05-07 02:59 38.50715 -86.22995 37182 ft 390 kts 201°
2026-05-07 02:59 38.47975 -86.23085 37365 ft 396 kts 200°
2026-05-07 02:59 38.45215 -86.23165 37622 ft 398 kts 200°
2026-05-07 03:00 38.42435 -86.23237 37902 ft 401 kts 200°
2026-05-07 03:00 38.39626 -86.23310 37956 ft 408 kts 200°
2026-05-07 03:00 38.33882 -86.23455 38031 ft 416 kts 199°
2026-05-07 03:01 38.29076 -86.23555 38035 ft 414 kts 199°
2026-05-07 03:01 38.23326 -86.23680 38028 ft 412 kts 199°
2026-05-07 03:02 38.17602 -86.23813 38025 ft 410 kts 200°
2026-05-07 03:02 38.11916 -86.23955 37968 ft 408 kts 199°
2026-05-07 03:03 38.06246 -86.24093 38023 ft 408 kts 199°
2026-05-07 03:03 38.00562 -86.24234 38022 ft 409 kts 199°
2026-05-07 03:04 37.94863 -86.24370 37871 ft 410 kts 199°
2026-05-07 03:04 37.92010 -86.24440 37737 ft 409 kts 200°
2026-05-07 03:04 37.89203 -86.24670 37569 ft 398 kts 204°
2026-05-07 03:05 37.86540 -86.25177 37460 ft 386 kts 208°
2026-05-07 03:05 37.83916 -86.25880 37382 ft 385 kts 208°
2026-05-07 03:05 37.78674 -86.27241 37255 ft 384 kts 208°
2026-05-07 03:06 37.73439 -86.28579 37102 ft 383 kts 208°
2026-05-07 03:06 37.68236 -86.29905 37026 ft 382 kts 208°
2026-05-07 03:07 37.62933 -86.31277 37000 ft 395 kts 207°
2026-05-07 03:07 37.57481 -86.32674 37018 ft 403 kts 207°
2026-05-07 03:08 37.51964 -86.34066 37025 ft 405 kts 207°
2026-05-07 03:08 37.46235 -86.34911 37027 ft 430 kts 196°
2026-05-07 03:09 37.40133 -86.34253 36966 ft 453 kts 186°
2026-05-07 03:09 37.33920 -86.32429 37013 ft 460 kts 183°
2026-05-07 03:10 37.27703 -86.30466 37026 ft 460 kts 183°
2026-05-07 03:10 37.21488 -86.28536 37029 ft 460 kts 183°
2026-05-07 03:11 37.15266 -86.26641 37022 ft 459 kts 183°
2026-05-07 03:11 37.09103 -86.24782 37033 ft 458 kts 183°
2026-05-07 03:12 37.02901 -86.22916 37043 ft 458 kts 184°
2026-05-07 03:12 36.96697 -86.21053 37041 ft 459 kts 183°
2026-05-07 03:13 36.90494 -86.19191 36994 ft 458 kts 183°
2026-05-07 03:13 36.84306 -86.17333 37018 ft 457 kts 183°
2026-05-07 03:14 36.78132 -86.15488 37039 ft 457 kts 183°
2026-05-07 03:15 36.68838 -86.12717 37041 ft 459 kts 183°
2026-05-07 03:15 36.62626 -86.10866 37048 ft 459 kts 183°
2026-05-07 03:16 36.56404 -86.09016 37046 ft 460 kts 183°
2026-05-07 03:16 36.50166 -86.07164 37043 ft 461 kts 183°
2026-05-07 03:17 36.43957 -86.05322 37047 ft 462 kts 183°
2026-05-07 03:17 36.37713 -86.03471 37032 ft 460 kts 182°
2026-05-07 03:18 36.31490 -86.01632 37040 ft 460 kts 182°
2026-05-07 03:18 36.25274 -85.99799 37049 ft 458 kts 182°
2026-05-07 03:19 36.19071 -85.97974 37065 ft 458 kts 182°
2026-05-07 03:19 36.12898 -85.96153 37037 ft 458 kts 182°
2026-05-07 03:20 36.06687 -85.94330 37034 ft 459 kts 182°
2026-05-07 03:20 36.00472 -85.92511 37040 ft 459 kts 182°
2026-05-07 03:21 35.94281 -85.90693 36839 ft 453 kts 182°
2026-05-07 03:21 35.91232 -85.89787 36415 ft 448 kts 182°
2026-05-07 03:21 35.88208 -85.88900 35873 ft 445 kts 182°
2026-05-07 03:21 35.85201 -85.88027 35317 ft 442 kts 182°
2026-05-07 03:22 35.82217 -85.87160 34834 ft 438 kts 182°
2026-05-07 03:22 35.79264 -85.86300 34403 ft 434 kts 182°
2026-05-07 03:22 35.76346 -85.85449 33979 ft 429 kts 182°
2026-05-07 03:22 35.73455 -85.84606 33484 ft 425 kts 182°
2026-05-07 03:23 35.70591 -85.83774 33115 ft 423 kts 182°
2026-05-07 03:23 35.67694 -85.82946 32971 ft 433 kts 182°
2026-05-07 03:23 35.64718 -85.82107 33012 ft 446 kts 181°
2026-05-07 03:23 35.61654 -85.81240 33017 ft 458 kts 181°
2026-05-07 03:24 35.58513 -85.80341 33028 ft 467 kts 181°
2026-05-07 03:24 35.52163 -85.78474 32997 ft 469 kts 180°
2026-05-07 03:25 35.45856 -85.76626 33025 ft 463 kts 181°
2026-05-07 03:25 35.39622 -85.74824 33006 ft 457 kts 180°
2026-05-07 03:26 35.33447 -85.73042 33015 ft 455 kts 181°
2026-05-07 03:26 35.27290 -85.71275 32998 ft 454 kts 181°
2026-05-07 03:26 35.24203 -85.70393 32503 ft 457 kts 180°
2026-05-07 03:27 35.21129 -85.69508 32028 ft 450 kts 180°
2026-05-07 03:27 35.18105 -85.68632 31554 ft 443 kts 180°
2026-05-07 03:27 35.15163 -85.67781 31053 ft 437 kts 180°
2026-05-07 03:27 35.12220 -85.66934 30628 ft 431 kts 180°
2026-05-07 03:28 35.09324 -85.66106 30201 ft 425 kts 180°
2026-05-07 03:28 35.06455 -85.65288 29707 ft 420 kts 180°
2026-05-07 03:28 35.03632 -85.64479 29217 ft 415 kts 180°
2026-05-07 03:28 35.00834 -85.63683 28750 ft 410 kts 180°
2026-05-07 03:29 34.98065 -85.62896 28319 ft 407 kts 180°
2026-05-07 03:29 34.95297 -85.62114 27881 ft 411 kts 180°
2026-05-07 03:29 34.92470 -85.61323 27450 ft 423 kts 180°
2026-05-07 03:29 34.89579 -85.60508 26933 ft 428 kts 179°
2026-05-07 03:30 34.86692 -85.59676 26497 ft 424 kts 178°
2026-05-07 03:30 34.83840 -85.58853 26045 ft 419 kts 179°
2026-05-07 03:30 34.81015 -85.58043 25611 ft 413 kts 178°
2026-05-07 03:30 34.78276 -85.56839 25167 ft 431 kts 162°
2026-05-07 03:31 34.75811 -85.54675 24757 ft 438 kts 152°
2026-05-07 03:31 34.73455 -85.52340 24324 ft 436 kts 152°
2026-05-07 03:31 34.71088 -85.50028 23897 ft 438 kts 153°
2026-05-07 03:31 34.68673 -85.47704 23424 ft 448 kts 153°
2026-05-07 03:32 34.66198 -85.45355 22914 ft 453 kts 152°
2026-05-07 03:32 34.63722 -85.43002 22423 ft 450 kts 152°
2026-05-07 03:32 34.61269 -85.40686 21964 ft 445 kts 151°
2026-05-07 03:32 34.58838 -85.38394 21522 ft 440 kts 151°
2026-05-07 03:33 34.56432 -85.36129 21106 ft 435 kts 151°
2026-05-07 03:33 34.54084 -85.33924 20676 ft 431 kts 151°
2026-05-07 03:33 34.51722 -85.31707 20247 ft 427 kts 151°
2026-05-07 03:33 34.49380 -85.29512 19828 ft 424 kts 151°
2026-05-07 03:34 34.47054 -85.27337 19410 ft 421 kts 151°
2026-05-07 03:34 34.44747 -85.25174 19001 ft 418 kts 150°
2026-05-07 03:34 34.42451 -85.23023 18577 ft 416 kts 150°
2026-05-07 03:34 34.40170 -85.20881 18123 ft 414 kts 150°
2026-05-07 03:35 34.37898 -85.18762 17619 ft 411 kts 150°
2026-05-07 03:35 34.35642 -85.16662 17185 ft 407 kts 149°
2026-05-07 03:35 34.33408 -85.14579 16761 ft 403 kts 149°
2026-05-07 03:35 34.31199 -85.12519 16346 ft 399 kts 149°
2026-05-07 03:36 34.29009 -85.10476 15927 ft 395 kts 149°
2026-05-07 03:36 34.26843 -85.08458 15496 ft 391 kts 149°
2026-05-07 03:36 34.24695 -85.06457 15085 ft 388 kts 149°
2026-05-07 03:36 34.22565 -85.04476 14663 ft 385 kts 148°
2026-05-07 03:37 34.20444 -85.02504 14253 ft 384 kts 148°
2026-05-07 03:37 34.18327 -85.00541 13819 ft 382 kts 148°
2026-05-07 03:37 34.16224 -84.98588 13362 ft 380 kts 148°
2026-05-07 03:37 34.14136 -84.96649 12963 ft 377 kts 147°
2026-05-07 03:38 34.12088 -84.94719 12754 ft 371 kts 147°
2026-05-07 03:38 34.10053 -84.92788 12540 ft 374 kts 147°
2026-05-07 03:38 34.07994 -84.90834 12343 ft 378 kts 147°
2026-05-07 03:38 34.05923 -84.88870 12139 ft 378 kts 147°
2026-05-07 03:39 34.03892 -84.86946 11930 ft 375 kts 147°
2026-05-07 03:39 34.01847 -84.85012 11728 ft 372 kts 147°
2026-05-07 03:39 33.99814 -84.83094 11513 ft 369 kts 148°
2026-05-07 03:39 33.97793 -84.81199 11320 ft 365 kts 148°
2026-05-07 03:40 33.95780 -84.79346 11157 ft 364 kts 147°
2026-05-07 03:40 33.93823 -84.77439 10930 ft 356 kts 146°
2026-05-07 03:40 33.91974 -84.75654 10704 ft 325 kts 148°
2026-05-07 03:40 33.90269 -84.74042 10547 ft 301 kts 149°
2026-05-07 03:41 33.88621 -84.72503 10401 ft 299 kts 149°
2026-05-07 03:41 33.86984 -84.70973 10223 ft 296 kts 149°
2026-05-07 03:41 33.85360 -84.69465 10058 ft 295 kts 149°
2026-05-07 03:41 33.83767 -84.67917 9879 ft 292 kts 146°
2026-05-07 03:42 33.82173 -84.66396 9713 ft 293 kts 150°
2026-05-07 03:42 33.80550 -84.64923 9569 ft 292 kts 150°
2026-05-07 03:42 33.78942 -84.63442 9395 ft 290 kts 149°
2026-05-07 03:42 33.77379 -84.61976 9246 ft 288 kts 149°
2026-05-07 03:43 33.75803 -84.60505 9087 ft 286 kts 149°
2026-05-07 03:43 33.74292 -84.58972 8888 ft 287 kts 137°
2026-05-07 03:43 33.73362 -84.56803 8766 ft 303 kts 107°
2026-05-07 03:43 33.73207 -84.54246 8612 ft 311 kts 92°
2026-05-07 03:44 33.73241 -84.51630 8456 ft 314 kts 92°
2026-05-07 03:44 33.73266 -84.49011 8274 ft 314 kts 92°
2026-05-07 03:44 33.73290 -84.46382 8116 ft 315 kts 92°
2026-05-07 03:44 33.73305 -84.43757 7924 ft 313 kts 93°
2026-05-07 03:45 33.73303 -84.41155 7758 ft 309 kts 94°
2026-05-07 03:45 33.73300 -84.38589 7572 ft 305 kts 94°
2026-05-07 03:45 33.73297 -84.36055 7353 ft 302 kts 93°
2026-05-07 03:45 33.73296 -84.33532 6982 ft 303 kts 93°
2026-05-07 03:46 33.73294 -84.31000 6536 ft 304 kts 93°
2026-05-07 03:46 33.73297 -84.28477 6012 ft 308 kts 94°
2026-05-07 03:46 33.73299 -84.25935 5755 ft 299 kts 94°
2026-05-07 03:46 33.73298 -84.23454 5334 ft 298 kts 94°
2026-05-07 03:47 33.73306 -84.20946 4970 ft 299 kts 94°
2026-05-07 03:47 33.73311 -84.18451 4638 ft 297 kts 94°
2026-05-07 03:47 33.73325 -84.15976 4373 ft 291 kts 95°
2026-05-07 03:47 33.73321 -84.13597 4238 ft 280 kts 95°
2026-05-07 03:48 33.73064 -84.11371 3908 ft 260 kts 120°
2026-05-07 03:48 33.72068 -84.09710 3629 ft 235 kts 150°
2026-05-07 03:48 33.70662 -84.09048 3565 ft 210 kts 182°
2026-05-07 03:48 33.69248 -84.09383 3498 ft 211 kts 202°
2026-05-07 03:49 33.67980 -84.10268 3477 ft 212 kts 220°
2026-05-07 03:49 33.67354 -84.11165 3463 ft 213 kts 238°
2026-05-07 03:49 33.66881 -84.12852 3465 ft 213 kts 249°
2026-05-07 03:49 33.66460 -84.14556 3447 ft 213 kts 248°
2026-05-07 03:50 33.65890 -84.16811 3344 ft 213 kts 248°
2026-05-07 03:50 33.65597 -84.17967 3295 ft 214 kts 247°
2026-05-07 03:50 33.65162 -84.19666 3279 ft 211 kts 247°
2026-05-07 03:50 33.64914 -84.21393 3205 ft 213 kts 263°
2026-05-07 03:51 33.64964 -84.23149 3218 ft 207 kts 263°
2026-05-07 03:51 33.64964 -84.24855 3164 ft 202 kts 262°
2026-05-07 03:51 33.64963 -84.26497 3105 ft 190 kts 262°
2026-05-07 03:51 33.64960 -84.28005 3009 ft 169 kts 261°
2026-05-07 03:52 33.64961 -84.29349 2862 ft 155 kts 259°
2026-05-07 03:52 33.64959 -84.30556 2685 ft 137 kts 258°
2026-05-07 03:52 33.64955 -84.31673 2518 ft 136 kts 259°
2026-05-07 03:52 33.64956 -84.32812 2349 ft 137 kts 260°
2026-05-07 03:53 33.64955 -84.33970 2153 ft 140 kts 262°
2026-05-07 03:53 33.64956 -84.35141 1984 ft 141 kts 261°
2026-05-07 03:53 33.64954 -84.36317 1810 ft 140 kts 261°
2026-05-07 03:53 33.64953 -84.37513 1624 ft 148 kts 265°
2026-05-07 03:54 33.64956 -84.38744 1415 ft 146 kts 267°
2026-05-07 03:54 33.64958 -84.39943 1206 ft 140 kts 266°
2026-05-07 03:54 33.64958 -84.41110 1037 ft 141 kts 268°
2026-05-07 03:54 33.64948 -84.42194 1012 ft 103 kts 270°
2026-05-07 03:55 33.64951 -84.42647 1012 ft 5 kts 269°
2026-05-07 03:55 33.64949 -84.42768 1011 ft 17 kts 269°
2026-05-07 03:55 33.64989 -84.42892 1011 ft 17 kts 329°
2026-05-07 03:55 33.65066 -84.42827 1011 ft 17 kts 87°
2026-05-07 03:56 33.65068 -84.42610 1011 ft 33 kts 90°
2026-05-07 03:56 33.65066 -84.42342 1012 ft 32 kts 90°
2026-05-07 03:56 33.65068 -84.42082 1011 ft 31 kts 89°
2026-05-07 03:56 33.65083 -84.41911 1011 ft 15 kts 52°
2026-05-07 03:57 33.65183 -84.41886 1011 ft 15 kts 358°
2026-05-07 03:57 33.65285 -84.41869 1011 ft 7 kts 358°
2026-05-07 03:57 33.65300 -84.41909 1011 ft 6 kts 262°
2026-05-07 03:57 33.65295 -84.41949 1011 ft 0 kts 260°